Back to catalog

STARLINK-32198

AliveCommunicationsVLEO
NORAD 60321·PAYLOAD·🇺🇸 United States

Launched Jul 28, 2024 from Vandenberg Space Force Base

Loading…

Next Passes (next 24 hours)

TLE

FreshSource: CelesTrak SupGP

Epoch: Sep 14, 2026, 13:55 UTC

1 60321C 24133W   26257.58034722  .00051827  00000+0  15330-2 0  2571
2 60321  53.1558 137.0912 0001033  85.2105  32.5298 15.34329740    10

Track STARLINK-32198 in real time with AllMySat

Download on the App Store